Location: McLaughlin
(0.0000°N, 0.0000°E)
Time: 22:36:35
(UTC+00:00)

KAITUO 1B - Visible Passes

Search period start: 19 August 2019 00:00
Search period end: 29 August 2019 00:00
Orbit: 497 x 516 km, 97.5° (Epoch: 18 August)

Date Brightness Start Highest point End Pass type
(mag) Time Alt. Az. Time Alt. Az. Time Alt. Az.
19 Aug ? 05:17:42 10° ENE 05:20:19 18° ESE 05:22:56 10° SE visible
19 Aug ? 18:42:47 10° SW 18:45:11 17° WSW 18:47:34 10° WNW visible
20 Aug ? 18:24:23 10° SSW 18:27:40 31° W 18:30:56 10° NW visible
24 Aug ? 05:23:21 10° NE 05:26:19 22° ESE 05:29:15 10° SSE visible
24 Aug ? 18:49:17 10° SW 18:51:09 13° WSW 18:53:01 10° WNW visible
25 Aug ? 05:07:21 10° ENE 05:08:47 12° ESE 05:10:14 10° SE visible
25 Aug ? 18:30:33 10° SSW 18:33:38 25° W 18:36:41 10° NW visible
